Location: Newark
(39.5667°N, 8.9833°E)
Time: 17:20:42
(UTC+00:00)

Transit 2A - Pass Details

Date: 31 October 2019
Orbit: 601 x 957 km, 66.7° (Epoch: 14 November)

Event Time Altitude Azimuth Distance (km) Brightness Sun altitude
Rises 17:30:59 0° 259° (W) 3,251 11.3 -13.4°
Reaches altitude 10° 17:34:43 10° 285° (WNW) 2,241 9.6 -14.1°
Maximum altitude 17:37:15 14° 315° (NW) 1,945 8.6 -14.6°
Drops below altitude 10° 17:39:41 10° 345° (NNW) 2,136 8.4 -15.1°
Sets 17:43:07 0° 12° (NNE) 2,985 8.9 -15.7°
